Hourly Data Report for August 19, 2018

CLYDE RIVER A
NUNAVUT
Current Station Operator: NAVCAN

70°29'09.000" N
68°31'01.000" W
26.50 m
2400804
71090
YCY

Download Data

Hourly Data (August 2018)
Hourly Data Report for August 19, 2018
TIME
LST
Temp Definition
°C
Dew Point Definition
°C
Rel Hum Definition
%
Precip. Amount Definition
mm

Wind Dir Definition
10's deg

Wind Spd Definition
km/h
Visibility Definition
km
Stn Press Definition
kPa
Hmdx Definition


Wind Chill Definition


Weather Definition


00:00 2.9 2.9 100 0.0 LegendMM 4 16.1 99.74     LegendNANA
01:00 1.4 1.4 100 0.0 2 5 16.1 99.74     LegendNANA
02:00 1.1 1.1 100 0.0 1 8 16.1 99.73     LegendNANA
03:00 1.3 1.3 100 0.0 1 5 16.1 99.73     LegendNANA
04:00 1.5 1.1 97 0.0 2 5 16.1 99.75     LegendNANA
05:00 3.4 2.4 93 0.0 1 8 16.1 99.77     LegendNANA
06:00 6.9 4.9 87 0.0 LegendMM 4 16.1 99.78     LegendNANA
07:00 8.4 5.8 84 0.0 1 8 16.1 99.78     LegendNANA
08:00 10.1 6.1 76 0.0 LegendMM 4 16.1 99.79     LegendNANA
09:00 10.7 3.9 63 0.0 36 5 16.1 99.78     LegendNANA
10:00 11.4 5.0 64 0.0 LegendMM 4 16.1 99.77     LegendNANA
11:00 11.2 5.2 66 0.0 13 13 16.1 99.74     LegendNANA
12:00 11.5 4.8 63 0.0 12 11 16.1 99.72     LegendNANA
13:00 14.0 3.5 49 0.0 17 21 16.1 99.71     LegendNANA
14:00 13.0 5.6 61 0.0 14 17 16.1 99.70     LegendNANA
15:00 11.6 5.4 66 0.0 12 17 16.1 99.70     LegendNANA
16:00 10.8 5.6 70 0.0 13 18 16.1 99.68     LegendNANA
17:00 10.1 5.4 72 0.0 14 17 16.1 99.66     LegendNANA
18:00 8.9 5.3 78 0.0 13 18 16.1 99.66     LegendNANA
19:00 8.3 4.3 76 0.0 14 22 16.1 99.67     LegendNANA
20:00 6.8 4.3 84 0.0 13 18 16.1 99.67     LegendNANA
21:00 6.2 3.6 83 0.0 19 11 16.1 99.66     LegendNANA
22:00 5.2 3.5 89 0.0 14 11 16.1 99.64     LegendNANA
23:00 6.1 3.5 83 0.0 14 13 16.1 99.63     LegendNANA

Notes on Data Quality.

Legend

  • E = Estimated
  • M = Missing
  • NA = Not Available*
  • [empty] = Indicates an unobserved value
Date modified: